User: anonymous   Login
Location: Champseau
(45.8333°N, 1.7667°E)
Time: 23:51:49
(UTC+00:00)
Language:

Cosmos 44 - Orbit

View from above orbital plane
View from above orbital plane
View from above satellite
View from above satellite

Ground track
Ground track

The orbit data is extracted from the following two-line orbital elements,

1 00876U 64053A   21172.60483013 -.00000097  00000-0  76275-5 0  9996
2 00876  65.0607 298.4736 0155738 258.1082 100.2520 14.63799018 21901
Epoch (UTC): 21 June 2021 14:30:57
Eccentricity: 0.0155738
inclination: 65.0607°
perigee height: 571 km
apogee height: 791 km
right ascension of ascending node: 298.4736°
argument of perigee: 258.1082°
revolutions per day: 14.63799018
mean anomaly at epoch: 100.2520°
orbit number at epoch: 2190

The dashed part of the orbit path shows where the satellite is in the earth's shadow,  

DLR